Year,Month,Day,Hour,Minute,Value (Times are PST for temperature in C)
2015,07,02,00,00,16.70
2015,07,02,00,01,16.70
2015,07,02,00,02,16.70
2015,07,02,00,03,16.70
2015,07,02,00,04,16.70
2015,07,02,00,05,16.60
2015,07,02,00,06,16.60
2015,07,02,00,07,16.60
2015,07,02,00,08,16.60
2015,07,02,00,09,16.60
2015,07,02,00,10,16.60
2015,07,02,00,11,16.60
2015,07,02,00,12,16.60
2015,07,02,00,13,16.60
2015,07,02,00,14,16.60
2015,07,02,00,15,16.60
2015,07,02,00,16,16.60
2015,07,02,00,17,16.60
2015,07,02,00,18,16.60
2015,07,02,00,19,16.60
2015,07,02,00,20,16.50
2015,07,02,00,21,16.50
2015,07,02,00,22,16.40
2015,07,02,00,23,16.40
2015,07,02,00,24,16.40
2015,07,02,00,25,16.40
2015,07,02,00,26,16.40
2015,07,02,00,27,16.40
2015,07,02,00,28,16.40
2015,07,02,00,29,16.50
2015,07,02,00,30,16.50
2015,07,02,00,31,16.50
2015,07,02,00,32,16.60
2015,07,02,00,33,16.60
2015,07,02,00,34,16.60
2015,07,02,00,35,16.60
2015,07,02,00,36,16.60
2015,07,02,00,37,16.60
2015,07,02,00,38,16.60
2015,07,02,00,39,16.60
2015,07,02,00,40,16.60
2015,07,02,00,41,16.60
2015,07,02,00,42,16.60
2015,07,02,00,43,16.60
2015,07,02,00,44,16.60
2015,07,02,00,45,16.60
2015,07,02,00,46,16.60
2015,07,02,00,47,16.50
2015,07,02,00,48,16.50
2015,07,02,00,49,16.50
2015,07,02,00,50,16.40
2015,07,02,00,51,16.40
2015,07,02,00,52,16.40
2015,07,02,00,53,16.40
2015,07,02,00,54,16.40
2015,07,02,00,55,16.30
2015,07,02,00,56,16.30
2015,07,02,00,57,16.30
2015,07,02,00,58,16.30
2015,07,02,00,59,16.20
2015,07,02,01,00,16.10
2015,07,02,01,01,16.10
2015,07,02,01,02,16.10
2015,07,02,01,03,16.10
2015,07,02,01,04,16.10
2015,07,02,01,05,16.10
2015,07,02,01,06,16.00
2015,07,02,01,07,16.00
2015,07,02,01,08,16.00
2015,07,02,01,09,16.00
2015,07,02,01,10,16.00
2015,07,02,01,11,16.00
2015,07,02,01,12,16.00
2015,07,02,01,13,15.90
2015,07,02,01,14,16.00
2015,07,02,01,15,16.00
2015,07,02,01,16,16.00
2015,07,02,01,17,16.00
2015,07,02,01,18,15.90
2015,07,02,01,19,15.90
2015,07,02,01,20,15.90
2015,07,02,01,21,15.90
2015,07,02,01,22,15.90
2015,07,02,01,23,15.90
2015,07,02,01,24,15.90
2015,07,02,01,25,15.90
2015,07,02,01,26,15.90
2015,07,02,01,27,15.90
2015,07,02,01,28,15.90
2015,07,02,01,29,15.90
2015,07,02,01,30,15.80
2015,07,02,01,31,15.80
2015,07,02,01,32,15.80
2015,07,02,01,33,15.80
2015,07,02,01,34,15.80
2015,07,02,01,35,15.80
2015,07,02,01,36,15.80
2015,07,02,01,37,15.80
2015,07,02,01,38,15.80
2015,07,02,01,39,15.70
2015,07,02,01,40,15.70
2015,07,02,01,41,15.70
2015,07,02,01,42,15.70
2015,07,02,01,43,15.70
2015,07,02,01,44,15.70
2015,07,02,01,45,15.70
2015,07,02,01,46,15.70
2015,07,02,01,47,15.70
2015,07,02,01,48,15.70
2015,07,02,01,49,15.70
2015,07,02,01,50,15.70
2015,07,02,01,51,15.70
2015,07,02,01,52,15.70
2015,07,02,01,53,15.70
2015,07,02,01,54,15.70
2015,07,02,01,55,15.60
2015,07,02,01,56,15.60
2015,07,02,01,57,15.60
2015,07,02,01,58,15.60
2015,07,02,01,59,15.60
2015,07,02,02,00,15.60
2015,07,02,02,01,15.50
2015,07,02,02,02,15.50
2015,07,02,02,03,15.50
2015,07,02,02,04,15.50
2015,07,02,02,05,15.40
2015,07,02,02,06,15.40
2015,07,02,02,07,15.40
2015,07,02,02,08,15.50
2015,07,02,02,09,15.40
2015,07,02,02,10,15.50
2015,07,02,02,11,15.50
2015,07,02,02,12,15.50
2015,07,02,02,13,15.50
2015,07,02,02,14,15.50
2015,07,02,02,15,15.50
2015,07,02,02,16,15.50
2015,07,02,02,17,15.50
2015,07,02,02,18,15.50
2015,07,02,02,19,15.50
2015,07,02,02,20,15.50
2015,07,02,02,21,15.50
2015,07,02,02,22,15.50
2015,07,02,02,23,15.50
2015,07,02,02,24,15.50
2015,07,02,02,25,15.50
2015,07,02,02,26,15.40
2015,07,02,02,27,15.40
2015,07,02,02,28,15.40
2015,07,02,02,29,15.40
2015,07,02,02,30,15.40
2015,07,02,02,31,15.40
2015,07,02,02,32,15.30
2015,07,02,02,33,15.30
2015,07,02,02,34,15.30
2015,07,02,02,35,15.30
2015,07,02,02,36,15.20
2015,07,02,02,37,15.20
2015,07,02,02,38,15.20
2015,07,02,02,39,15.10
2015,07,02,02,40,15.10
2015,07,02,02,41,15.20
2015,07,02,02,42,15.20
2015,07,02,02,43,15.30
2015,07,02,02,44,15.30
2015,07,02,02,45,15.30
2015,07,02,02,46,15.30
2015,07,02,02,47,15.40
2015,07,02,02,48,15.40
2015,07,02,02,49,15.40
2015,07,02,02,50,15.40
2015,07,02,02,51,15.40
2015,07,02,02,52,15.40
2015,07,02,02,53,15.40
2015,07,02,02,54,15.40
2015,07,02,02,55,15.30
2015,07,02,02,56,15.30
2015,07,02,02,57,15.30
2015,07,02,02,58,15.30
2015,07,02,02,59,15.30
2015,07,02,03,00,15.30
2015,07,02,03,01,15.30
2015,07,02,03,02,15.30
2015,07,02,03,03,15.30
2015,07,02,03,04,15.30
2015,07,02,03,05,15.30
2015,07,02,03,06,15.30
2015,07,02,03,07,15.30
2015,07,02,03,08,15.30
2015,07,02,03,09,15.30
2015,07,02,03,10,15.30
2015,07,02,03,11,15.30
2015,07,02,03,12,15.30
2015,07,02,03,13,15.30
2015,07,02,03,14,15.30
2015,07,02,03,15,15.30
2015,07,02,03,16,15.30
2015,07,02,03,17,15.30
2015,07,02,03,18,15.30
2015,07,02,03,19,15.30
2015,07,02,03,20,15.30
2015,07,02,03,21,15.30
2015,07,02,03,22,15.30
2015,07,02,03,23,15.30
2015,07,02,03,24,15.40
2015,07,02,03,25,15.40
2015,07,02,03,26,15.50
2015,07,02,03,27,15.50
2015,07,02,03,28,15.60
2015,07,02,03,29,15.60
2015,07,02,03,30,15.70
2015,07,02,03,31,15.70
2015,07,02,03,32,15.70
2015,07,02,03,33,15.70
2015,07,02,03,34,15.70
2015,07,02,03,35,15.70
2015,07,02,03,36,15.70
2015,07,02,03,37,15.60
2015,07,02,03,38,15.60
2015,07,02,03,39,15.50
2015,07,02,03,40,15.50
2015,07,02,03,41,15.50
2015,07,02,03,42,15.50
2015,07,02,03,43,15.60
2015,07,02,03,44,15.60
2015,07,02,03,45,15.60
2015,07,02,03,46,15.60
2015,07,02,03,47,15.70
2015,07,02,03,48,15.70
2015,07,02,03,49,15.70
2015,07,02,03,50,15.70
2015,07,02,03,51,15.80
2015,07,02,03,52,15.80
2015,07,02,03,53,15.80
2015,07,02,03,54,15.80
2015,07,02,03,55,15.80
2015,07,02,03,56,15.80
2015,07,02,03,57,15.80
2015,07,02,03,58,15.80
2015,07,02,03,59,15.90
2015,07,02,04,00,15.80
2015,07,02,04,01,15.80
2015,07,02,04,02,15.80
2015,07,02,04,03,15.80
2015,07,02,04,04,15.80
2015,07,02,04,05,15.80
2015,07,02,04,06,15.80
2015,07,02,04,07,15.80
2015,07,02,04,08,15.80
2015,07,02,04,09,15.80
2015,07,02,04,10,15.70
2015,07,02,04,11,15.70
2015,07,02,04,12,15.70
2015,07,02,04,13,15.70
2015,07,02,04,14,15.70
2015,07,02,04,15,15.70
2015,07,02,04,16,15.60
2015,07,02,04,17,15.60
2015,07,02,04,18,15.50
2015,07,02,04,19,15.50
2015,07,02,04,20,15.50
2015,07,02,04,21,15.40
2015,07,02,04,22,15.40
2015,07,02,04,23,15.40
2015,07,02,04,24,15.40
2015,07,02,04,25,15.40
2015,07,02,04,26,15.30
2015,07,02,04,27,15.30
2015,07,02,04,28,15.30
2015,07,02,04,29,15.30
2015,07,02,04,30,15.20
2015,07,02,04,31,15.20
2015,07,02,04,32,15.20
2015,07,02,04,33,15.20
2015,07,02,04,34,15.20
2015,07,02,04,35,15.10
2015,07,02,04,36,15.10
2015,07,02,04,37,15.10
2015,07,02,04,38,15.10
2015,07,02,04,39,15.00
2015,07,02,04,40,15.00
2015,07,02,04,41,15.00
2015,07,02,04,42,14.90
2015,07,02,04,43,14.90
2015,07,02,04,44,14.90
2015,07,02,04,45,14.90
2015,07,02,04,46,14.90
2015,07,02,04,47,14.90
2015,07,02,04,48,14.80
2015,07,02,04,49,14.80
2015,07,02,04,50,14.80
2015,07,02,04,51,14.80
2015,07,02,04,52,14.80
2015,07,02,04,53,14.70
2015,07,02,04,54,14.70
2015,07,02,04,55,14.70
2015,07,02,04,56,14.70
2015,07,02,04,57,14.70
2015,07,02,04,58,14.70
2015,07,02,04,59,14.60
2015,07,02,05,00,14.60
2015,07,02,05,01,14.60
2015,07,02,05,02,14.60
2015,07,02,05,03,14.60
2015,07,02,05,04,14.60
2015,07,02,05,05,14.50
2015,07,02,05,06,14.50
2015,07,02,05,07,14.50
2015,07,02,05,08,14.50
2015,07,02,05,09,14.40
2015,07,02,05,10,14.40
2015,07,02,05,11,14.40
2015,07,02,05,12,14.40
2015,07,02,05,13,14.40
2015,07,02,05,14,14.40
2015,07,02,05,15,14.40
2015,07,02,05,16,14.40
2015,07,02,05,17,14.40
2015,07,02,05,18,14.40
2015,07,02,05,19,14.30
2015,07,02,05,20,14.30
2015,07,02,05,21,14.30
2015,07,02,05,22,14.30
2015,07,02,05,23,14.30
2015,07,02,05,24,14.30
2015,07,02,05,25,14.30
2015,07,02,05,26,14.30
2015,07,02,05,27,14.30
2015,07,02,05,28,14.30
2015,07,02,05,29,14.20
2015,07,02,05,30,14.20
2015,07,02,05,31,14.20
2015,07,02,05,32,14.30
2015,07,02,05,33,14.30
2015,07,02,05,34,14.30
2015,07,02,05,35,14.30
2015,07,02,05,36,14.30
2015,07,02,05,37,14.20
2015,07,02,05,38,14.20
2015,07,02,05,39,14.20
2015,07,02,05,40,14.20
2015,07,02,05,41,14.20
2015,07,02,05,42,14.20
2015,07,02,05,43,14.20
2015,07,02,05,44,14.20
2015,07,02,05,45,14.20
2015,07,02,05,46,14.20
2015,07,02,05,47,14.20
2015,07,02,05,48,14.20
2015,07,02,05,49,14.20
2015,07,02,05,50,14.20
2015,07,02,05,51,14.20
2015,07,02,05,52,14.20
2015,07,02,05,53,14.20
2015,07,02,05,54,14.20
2015,07,02,05,55,14.20
2015,07,02,05,56,14.20
2015,07,02,05,57,14.20
2015,07,02,05,58,14.10
2015,07,02,05,59,14.10
2015,07,02,06,00,14.10
2015,07,02,06,01,14.10
2015,07,02,06,02,14.10
2015,07,02,06,03,14.10
2015,07,02,06,04,14.10
2015,07,02,06,05,14.10
2015,07,02,06,06,14.00
2015,07,02,06,07,14.00
2015,07,02,06,08,14.00
2015,07,02,06,09,14.00
2015,07,02,06,10,14.00
2015,07,02,06,11,14.00
2015,07,02,06,12,14.10
2015,07,02,06,13,14.10
2015,07,02,06,14,14.10
2015,07,02,06,15,14.10
2015,07,02,06,16,14.10
2015,07,02,06,17,14.10
2015,07,02,06,18,14.10
2015,07,02,06,19,14.10
2015,07,02,06,20,14.10
2015,07,02,06,21,14.10
2015,07,02,06,22,14.10
2015,07,02,06,23,14.10
2015,07,02,06,24,14.10
2015,07,02,06,25,14.10
2015,07,02,06,26,14.20
2015,07,02,06,27,14.20
2015,07,02,06,28,14.20
2015,07,02,06,29,14.20
2015,07,02,06,30,14.30
2015,07,02,06,31,14.30
2015,07,02,06,32,14.30
2015,07,02,06,33,14.30
2015,07,02,06,34,14.30
2015,07,02,06,35,14.30
2015,07,02,06,36,14.30
2015,07,02,06,37,14.30
2015,07,02,06,38,14.30
2015,07,02,06,39,14.30
2015,07,02,06,40,14.30
2015,07,02,06,41,14.30
2015,07,02,06,42,14.30
2015,07,02,06,43,14.30
2015,07,02,06,44,14.30
2015,07,02,06,45,14.30
2015,07,02,06,46,14.40
2015,07,02,06,47,14.40
2015,07,02,06,48,14.40
2015,07,02,06,49,14.50
2015,07,02,06,50,14.50
2015,07,02,06,51,14.60
2015,07,02,06,52,14.60
2015,07,02,06,53,14.60
2015,07,02,06,54,14.60
2015,07,02,06,55,14.60
2015,07,02,06,56,14.60
2015,07,02,06,57,14.60
2015,07,02,06,58,14.70
2015,07,02,06,59,14.70
2015,07,02,07,00,14.70
2015,07,02,07,01,14.70
2015,07,02,07,02,14.70
2015,07,02,07,03,14.70
2015,07,02,07,04,14.70
2015,07,02,07,05,14.70
2015,07,02,07,06,14.70
2015,07,02,07,07,14.80
2015,07,02,07,08,14.80
2015,07,02,07,09,14.80
2015,07,02,07,10,14.90
2015,07,02,07,11,14.90
2015,07,02,07,12,14.90
2015,07,02,07,13,14.90
2015,07,02,07,14,15.00
2015,07,02,07,15,15.00
2015,07,02,07,16,15.10
2015,07,02,07,17,15.10
2015,07,02,07,18,15.10
2015,07,02,07,19,15.10
2015,07,02,07,20,15.20
2015,07,02,07,21,15.20
2015,07,02,07,22,15.20
2015,07,02,07,23,15.20
2015,07,02,07,24,15.20
2015,07,02,07,25,15.30
2015,07,02,07,26,15.30
2015,07,02,07,27,15.30
2015,07,02,07,28,15.30
2015,07,02,07,29,15.30
2015,07,02,07,30,15.40
2015,07,02,07,31,15.40
2015,07,02,07,32,15.40
2015,07,02,07,33,15.40
2015,07,02,07,34,15.50
2015,07,02,07,35,15.50
2015,07,02,07,36,15.60
2015,07,02,07,37,15.70
2015,07,02,07,38,15.70
2015,07,02,07,39,15.80
2015,07,02,07,40,15.80
2015,07,02,07,41,15.90
2015,07,02,07,42,15.90
2015,07,02,07,43,16.00
2015,07,02,07,44,16.00
2015,07,02,07,45,16.10
2015,07,02,07,46,16.10
2015,07,02,07,47,16.20
2015,07,02,07,48,16.20
2015,07,02,07,49,16.30
2015,07,02,07,50,16.30
2015,07,02,07,51,16.40
2015,07,02,07,52,16.40
2015,07,02,07,53,16.50
2015,07,02,07,54,16.50
2015,07,02,07,55,16.60
2015,07,02,07,56,16.70
2015,07,02,07,57,16.80
2015,07,02,07,58,16.80
2015,07,02,07,59,16.90
2015,07,02,08,00,16.90
2015,07,02,08,01,17.00
2015,07,02,08,02,17.10
2015,07,02,08,03,17.10
2015,07,02,08,04,17.20
2015,07,02,08,05,17.20
2015,07,02,08,06,17.20
2015,07,02,08,07,17.30
2015,07,02,08,08,17.30
2015,07,02,08,09,17.30
2015,07,02,08,10,17.30
2015,07,02,08,11,17.30
2015,07,02,08,12,17.30
2015,07,02,08,13,17.40
2015,07,02,08,14,17.40
2015,07,02,08,15,17.40
2015,07,02,08,16,17.50
2015,07,02,08,17,17.60
2015,07,02,08,18,17.70
2015,07,02,08,19,17.70
2015,07,02,08,20,17.80
2015,07,02,08,21,17.80
2015,07,02,08,22,17.90
2015,07,02,08,23,18.00
2015,07,02,08,24,18.00
2015,07,02,08,25,18.10
2015,07,02,08,26,18.20
2015,07,02,08,27,18.20
2015,07,02,08,28,18.30
2015,07,02,08,29,18.40
2015,07,02,08,30,18.50
2015,07,02,08,31,18.60
2015,07,02,08,32,18.60
2015,07,02,08,33,18.60
2015,07,02,08,34,18.70
2015,07,02,08,35,18.70
2015,07,02,08,36,18.70
2015,07,02,08,37,18.70
2015,07,02,08,38,18.60
2015,07,02,08,39,18.60
2015,07,02,08,40,18.60
2015,07,02,08,41,18.50
2015,07,02,08,42,18.40
2015,07,02,08,43,18.40
2015,07,02,08,44,18.40
2015,07,02,08,45,18.30
2015,07,02,08,46,18.30
2015,07,02,08,47,18.30
2015,07,02,08,48,18.30
2015,07,02,08,49,18.30
2015,07,02,08,50,18.40
2015,07,02,08,51,18.40
2015,07,02,08,52,18.40
2015,07,02,08,53,18.50
2015,07,02,08,54,18.50
2015,07,02,08,55,18.60
2015,07,02,08,56,18.60
2015,07,02,08,57,18.60
2015,07,02,08,58,18.60
2015,07,02,08,59,18.60
2015,07,02,09,00,18.60
2015,07,02,09,01,18.60
2015,07,02,09,02,18.60
2015,07,02,09,03,18.60
2015,07,02,09,04,18.60
2015,07,02,09,05,18.60
2015,07,02,09,06,18.60
2015,07,02,09,07,18.60
2015,07,02,09,08,18.60
2015,07,02,09,09,18.60
2015,07,02,09,10,18.60
2015,07,02,09,11,18.60
2015,07,02,09,12,18.70
2015,07,02,09,13,18.80
2015,07,02,09,14,18.80
2015,07,02,09,15,18.80
2015,07,02,09,16,18.80
2015,07,02,09,17,18.80
2015,07,02,09,18,18.80
2015,07,02,09,19,18.80
2015,07,02,09,20,18.80
2015,07,02,09,21,18.80
2015,07,02,09,22,18.80
2015,07,02,09,23,18.90
2015,07,02,09,24,18.90
2015,07,02,09,25,18.90
2015,07,02,09,26,18.90
2015,07,02,09,27,18.90
2015,07,02,09,28,18.90
2015,07,02,09,29,18.80
2015,07,02,09,30,18.80
2015,07,02,09,31,18.70
2015,07,02,09,32,18.70
2015,07,02,09,33,18.70
2015,07,02,09,34,18.70
2015,07,02,09,35,18.70
2015,07,02,09,36,18.70
2015,07,02,09,37,18.80
2015,07,02,09,38,18.80
2015,07,02,09,39,18.80
2015,07,02,09,40,18.80
2015,07,02,09,41,18.80
2015,07,02,09,42,18.80
2015,07,02,09,43,18.80
2015,07,02,09,44,18.80
2015,07,02,09,45,18.80
2015,07,02,09,46,18.80
2015,07,02,09,47,18.80
2015,07,02,09,48,18.80
2015,07,02,09,49,18.80
2015,07,02,09,50,18.90
2015,07,02,09,51,18.90
2015,07,02,09,52,18.90
2015,07,02,09,53,19.00
2015,07,02,09,54,19.00
2015,07,02,09,55,19.10
2015,07,02,09,56,19.10
2015,07,02,09,57,19.10
2015,07,02,09,58,19.10
2015,07,02,09,59,19.00
2015,07,02,10,00,18.90
2015,07,02,10,01,18.90
2015,07,02,10,02,18.80
2015,07,02,10,03,18.80
2015,07,02,10,04,18.70
2015,07,02,10,05,18.70
2015,07,02,10,06,18.80
2015,07,02,10,07,18.80
2015,07,02,10,08,18.90
2015,07,02,10,09,18.90
2015,07,02,10,10,19.00
2015,07,02,10,11,19.10
2015,07,02,10,12,19.10
2015,07,02,10,13,19.20
2015,07,02,10,14,19.30
2015,07,02,10,15,19.30
2015,07,02,10,16,19.20
2015,07,02,10,17,19.20
2015,07,02,10,18,19.10
2015,07,02,10,19,19.00
2015,07,02,10,20,18.90
2015,07,02,10,21,18.80
2015,07,02,10,22,18.80
2015,07,02,10,23,18.70
2015,07,02,10,24,18.70
2015,07,02,10,25,18.70
2015,07,02,10,26,18.70
2015,07,02,10,27,18.70
2015,07,02,10,28,18.70
2015,07,02,10,29,18.70
2015,07,02,10,30,18.60
2015,07,02,10,31,18.60
2015,07,02,10,32,18.70
2015,07,02,10,33,18.70
2015,07,02,10,34,18.70
2015,07,02,10,35,18.70
2015,07,02,10,36,18.70
2015,07,02,10,37,18.70
2015,07,02,10,38,18.70
2015,07,02,10,39,18.80
2015,07,02,10,40,18.80
2015,07,02,10,41,18.80
2015,07,02,10,42,18.80
2015,07,02,10,43,18.80
2015,07,02,10,44,18.80
2015,07,02,10,45,18.90
2015,07,02,10,46,18.90
2015,07,02,10,47,18.90
2015,07,02,10,48,18.90
2015,07,02,10,49,18.90
2015,07,02,10,50,18.90
2015,07,02,10,51,18.90
2015,07,02,10,52,18.80
2015,07,02,10,53,18.80
2015,07,02,10,54,18.70
2015,07,02,10,55,18.70
2015,07,02,10,56,18.60
2015,07,02,10,57,18.70
2015,07,02,10,58,18.70
2015,07,02,10,59,18.70
2015,07,02,11,00,18.70
2015,07,02,11,01,18.70
2015,07,02,11,02,18.80
2015,07,02,11,03,18.80
2015,07,02,11,04,18.80
2015,07,02,11,05,18.90
2015,07,02,11,06,18.90
2015,07,02,11,07,19.00
2015,07,02,11,08,19.00
2015,07,02,11,09,19.00
2015,07,02,11,10,19.10
2015,07,02,11,11,19.10
2015,07,02,11,12,19.10
2015,07,02,11,13,19.10
2015,07,02,11,14,19.20
2015,07,02,11,15,19.20
2015,07,02,11,16,19.20
2015,07,02,11,17,19.20
2015,07,02,11,18,19.20
2015,07,02,11,19,19.30
2015,07,02,11,20,19.30
2015,07,02,11,21,19.40
2015,07,02,11,22,19.50
2015,07,02,11,23,19.50
2015,07,02,11,24,19.60
2015,07,02,11,25,19.60
2015,07,02,11,26,19.70
2015,07,02,11,27,19.80
2015,07,02,11,28,19.80
2015,07,02,11,29,19.80
2015,07,02,11,30,19.80
2015,07,02,11,31,19.70
2015,07,02,11,32,19.70
2015,07,02,11,33,19.70
2015,07,02,11,34,19.70
2015,07,02,11,35,19.80
2015,07,02,11,36,19.80
2015,07,02,11,37,19.90
2015,07,02,11,38,20.00
2015,07,02,11,39,20.00
2015,07,02,11,40,20.10
2015,07,02,11,41,20.20
2015,07,02,11,42,20.40
2015,07,02,11,43,20.40
2015,07,02,11,44,20.50
2015,07,02,11,45,20.60
2015,07,02,11,46,20.60
2015,07,02,11,47,20.70
2015,07,02,11,48,20.70
2015,07,02,11,49,20.70
2015,07,02,11,50,20.80
2015,07,02,11,51,20.80
2015,07,02,11,52,20.80
2015,07,02,11,53,20.80
2015,07,02,11,54,20.80
2015,07,02,11,55,20.90
2015,07,02,11,56,20.90
2015,07,02,11,57,21.00
2015,07,02,11,58,21.10
2015,07,02,11,59,21.20
2015,07,02,12,00,21.30
2015,07,02,12,01,21.40
2015,07,02,12,02,21.60
2015,07,02,12,03,21.70
2015,07,02,12,04,21.80
2015,07,02,12,05,21.90
2015,07,02,12,06,21.90
2015,07,02,12,07,21.90
2015,07,02,12,08,21.90
2015,07,02,12,09,21.80
2015,07,02,12,10,21.70
2015,07,02,12,11,21.70
2015,07,02,12,12,21.60
2015,07,02,12,13,21.50
2015,07,02,12,14,21.40
2015,07,02,12,15,21.40
2015,07,02,12,16,21.50
2015,07,02,12,17,21.70
2015,07,02,12,18,21.80
2015,07,02,12,19,21.80
2015,07,02,12,20,21.80
2015,07,02,12,21,21.80
2015,07,02,12,22,21.70
2015,07,02,12,23,21.50
2015,07,02,12,24,21.40
2015,07,02,12,25,21.20
2015,07,02,12,26,21.00
2015,07,02,12,27,20.80
2015,07,02,12,28,20.70
2015,07,02,12,29,20.60
2015,07,02,12,30,20.40
2015,07,02,12,31,20.40
2015,07,02,12,32,20.50
2015,07,02,12,33,20.50
2015,07,02,12,34,20.60
2015,07,02,12,35,20.60
2015,07,02,12,36,20.70
2015,07,02,12,37,20.80
2015,07,02,12,38,20.80
2015,07,02,12,39,20.90
2015,07,02,12,40,21.00
2015,07,02,12,41,21.00
2015,07,02,12,42,21.00
2015,07,02,12,43,20.90
2015,07,02,12,44,20.90
2015,07,02,12,45,20.90
2015,07,02,12,46,21.00
2015,07,02,12,47,21.00
2015,07,02,12,48,21.00
2015,07,02,12,49,20.90
2015,07,02,12,50,20.90
2015,07,02,12,51,20.70
2015,07,02,12,52,20.30
2015,07,02,12,53,20.00
2015,07,02,12,54,19.80
2015,07,02,12,55,19.60
2015,07,02,12,56,19.40
2015,07,02,12,57,19.40
2015,07,02,12,58,19.40
2015,07,02,12,59,19.30
2015,07,02,13,00,19.20
2015,07,02,13,01,19.00
2015,07,02,13,02,18.90
2015,07,02,13,03,18.90
2015,07,02,13,04,18.90
2015,07,02,13,05,18.90
2015,07,02,13,06,18.80
2015,07,02,13,07,18.80
2015,07,02,13,08,18.80
2015,07,02,13,09,18.80
2015,07,02,13,10,18.80
2015,07,02,13,11,18.90
2015,07,02,13,12,19.00
2015,07,02,13,13,19.00
2015,07,02,13,14,19.10
2015,07,02,13,15,19.20
2015,07,02,13,16,19.20
2015,07,02,13,17,19.20
2015,07,02,13,18,19.20
2015,07,02,13,19,19.20
2015,07,02,13,20,19.20
2015,07,02,13,21,19.30
2015,07,02,13,22,19.30
2015,07,02,13,23,19.40
2015,07,02,13,24,19.40
2015,07,02,13,25,19.30
2015,07,02,13,26,19.40
2015,07,02,13,27,19.40
2015,07,02,13,28,19.50
2015,07,02,13,29,19.60
2015,07,02,13,30,19.60
2015,07,02,13,31,19.60
2015,07,02,13,32,19.60
2015,07,02,13,33,19.70
2015,07,02,13,34,19.70
2015,07,02,13,35,19.70
2015,07,02,13,36,19.80
2015,07,02,13,37,19.90
2015,07,02,13,38,20.00
2015,07,02,13,39,20.10
2015,07,02,13,40,20.10
2015,07,02,13,41,20.20
2015,07,02,13,42,20.30
2015,07,02,13,43,20.30
2015,07,02,13,44,20.30
2015,07,02,13,45,20.30
2015,07,02,13,46,20.30
2015,07,02,13,47,20.30
2015,07,02,13,48,20.40
2015,07,02,13,49,20.40
2015,07,02,13,50,20.50
2015,07,02,13,51,20.60
2015,07,02,13,52,20.60
2015,07,02,13,53,20.70
2015,07,02,13,54,20.80
2015,07,02,13,55,20.80
2015,07,02,13,56,20.80
2015,07,02,13,57,20.80
2015,07,02,13,58,20.80
2015,07,02,13,59,20.80
2015,07,02,14,00,20.80
2015,07,02,14,01,20.90
2015,07,02,14,02,21.00
2015,07,02,14,03,21.10
2015,07,02,14,04,21.20
2015,07,02,14,05,21.30
2015,07,02,14,06,21.30
2015,07,02,14,07,21.30
2015,07,02,14,08,21.40
2015,07,02,14,09,21.40
2015,07,02,14,10,21.40
2015,07,02,14,11,21.40
2015,07,02,14,12,21.40
2015,07,02,14,13,21.50
2015,07,02,14,14,21.50
2015,07,02,14,15,21.60
2015,07,02,14,16,21.70
2015,07,02,14,17,21.70
2015,07,02,14,18,21.70
2015,07,02,14,19,21.80
2015,07,02,14,20,21.80
2015,07,02,14,21,21.90
2015,07,02,14,22,21.90
2015,07,02,14,23,22.00
2015,07,02,14,24,22.10
2015,07,02,14,25,22.20
2015,07,02,14,26,22.20
2015,07,02,14,27,22.30
2015,07,02,14,28,22.40
2015,07,02,14,29,22.40
2015,07,02,14,30,22.50
2015,07,02,14,31,22.60
2015,07,02,14,32,22.70
2015,07,02,14,33,22.70
2015,07,02,14,34,22.70
2015,07,02,14,35,22.70
2015,07,02,14,36,22.80
2015,07,02,14,37,23.00
2015,07,02,14,38,23.10
2015,07,02,14,39,23.20
2015,07,02,14,40,23.30
2015,07,02,14,41,23.30
2015,07,02,14,42,23.30
2015,07,02,14,43,23.30
2015,07,02,14,44,23.40
2015,07,02,14,45,23.40
2015,07,02,14,46,23.40
2015,07,02,14,47,23.50
2015,07,02,14,48,23.50
2015,07,02,14,49,23.60
2015,07,02,14,50,23.70
2015,07,02,14,51,23.80
2015,07,02,14,52,23.90
2015,07,02,14,53,23.90
2015,07,02,14,54,24.00
2015,07,02,14,55,24.00
2015,07,02,14,56,24.00
2015,07,02,14,57,23.90
2015,07,02,14,58,23.80
2015,07,02,14,59,23.70
2015,07,02,15,00,23.60
2015,07,02,15,01,23.40
2015,07,02,15,02,23.30
2015,07,02,15,03,23.20
2015,07,02,15,04,23.10
2015,07,02,15,05,23.00
2015,07,02,15,06,22.90
2015,07,02,15,07,22.70
2015,07,02,15,08,22.60
2015,07,02,15,09,22.60
2015,07,02,15,10,22.60
2015,07,02,15,11,22.60
2015,07,02,15,12,22.70
2015,07,02,15,13,22.80
2015,07,02,15,14,22.90
2015,07,02,15,15,23.00
2015,07,02,15,16,23.00
2015,07,02,15,17,23.00
2015,07,02,15,18,22.90
2015,07,02,15,19,22.90
2015,07,02,15,20,22.90
2015,07,02,15,21,22.80
2015,07,02,15,22,22.70
2015,07,02,15,23,22.50
2015,07,02,15,24,22.40
2015,07,02,15,25,22.20
2015,07,02,15,26,22.00
2015,07,02,15,27,21.80
2015,07,02,15,28,21.70
2015,07,02,15,29,21.60
2015,07,02,15,30,21.60
2015,07,02,15,31,21.60
2015,07,02,15,32,21.60
2015,07,02,15,33,21.60
2015,07,02,15,34,21.70
2015,07,02,15,35,21.80
2015,07,02,15,36,21.90
2015,07,02,15,37,22.00
2015,07,02,15,38,22.10
2015,07,02,15,39,22.10
2015,07,02,15,40,22.10
2015,07,02,15,41,22.10
2015,07,02,15,42,22.20
2015,07,02,15,43,22.20
2015,07,02,15,44,22.20
2015,07,02,15,45,22.20
2015,07,02,15,46,22.20
2015,07,02,15,47,22.20
2015,07,02,15,48,22.20
2015,07,02,15,49,22.10
2015,07,02,15,50,22.10
2015,07,02,15,51,22.00
2015,07,02,15,52,21.90
2015,07,02,15,53,21.90
2015,07,02,15,54,21.90
2015,07,02,15,55,21.80
2015,07,02,15,56,21.80
2015,07,02,15,57,21.70
2015,07,02,15,58,21.60
2015,07,02,15,59,21.50
2015,07,02,16,00,21.40
2015,07,02,16,01,21.30
2015,07,02,16,02,21.20
2015,07,02,16,03,21.20
2015,07,02,16,04,21.10
2015,07,02,16,05,21.00
2015,07,02,16,06,20.80
2015,07,02,16,07,20.80
2015,07,02,16,08,20.70
2015,07,02,16,09,20.60
2015,07,02,16,10,20.60
2015,07,02,16,11,20.50
2015,07,02,16,12,20.50
2015,07,02,16,13,20.50
2015,07,02,16,14,20.60
2015,07,02,16,15,20.70
2015,07,02,16,16,20.80
2015,07,02,16,17,21.00
2015,07,02,16,18,21.10
2015,07,02,16,19,21.10
2015,07,02,16,20,21.20
2015,07,02,16,21,21.30
2015,07,02,16,22,21.40
2015,07,02,16,23,21.50
2015,07,02,16,24,21.70
2015,07,02,16,25,21.80
2015,07,02,16,26,22.00
2015,07,02,16,27,22.10
2015,07,02,16,28,22.20
2015,07,02,16,29,22.20
2015,07,02,16,30,22.30
2015,07,02,16,31,22.30
2015,07,02,16,32,22.30
2015,07,02,16,33,22.30
2015,07,02,16,34,22.40
2015,07,02,16,35,22.30
2015,07,02,16,36,22.30
2015,07,02,16,37,22.10
2015,07,02,16,38,22.00
2015,07,02,16,39,21.90
2015,07,02,16,40,21.90
2015,07,02,16,41,21.80
2015,07,02,16,42,21.80
2015,07,02,16,43,21.80
2015,07,02,16,44,21.70
2015,07,02,16,45,21.70
2015,07,02,16,46,21.60
2015,07,02,16,47,21.60
2015,07,02,16,48,21.50
2015,07,02,16,49,21.50
2015,07,02,16,50,21.50
2015,07,02,16,51,21.60
2015,07,02,16,52,21.60
2015,07,02,16,53,21.70
2015,07,02,16,54,21.70
2015,07,02,16,55,21.90
2015,07,02,16,56,22.00
2015,07,02,16,57,22.00
2015,07,02,16,58,22.10
2015,07,02,16,59,22.20
2015,07,02,17,00,22.30
2015,07,02,17,01,22.40
2015,07,02,17,02,22.50
2015,07,02,17,03,22.60
2015,07,02,17,04,22.70
2015,07,02,17,05,22.80
2015,07,02,17,06,22.90
2015,07,02,17,07,23.00
2015,07,02,17,08,23.10
2015,07,02,17,09,23.00
2015,07,02,17,10,23.00
2015,07,02,17,11,23.00
2015,07,02,17,12,22.90
2015,07,02,17,13,22.90
2015,07,02,17,14,22.90
2015,07,02,17,15,22.90
2015,07,02,17,16,23.00
2015,07,02,17,17,23.10
2015,07,02,17,18,23.20
2015,07,02,17,19,23.30